[[{"header":{"parameterUnit":"m.s-1","parameterCategory":1,"la1":30.2991,"la2":30.254,"lo1":-89.0895,"lo2":-89.0444,"dy":0.0017,"dx":0.0017,"nx":28,"ny":28,"refTime":"2023-07-20T03:00:00:Z","depth":0,"parameterNumber":2,"parameterNumberName":"U-component_of_WINDS"},"data":[0,0,0,0,0,0,0,0,0,0,0,0,0,0,0,0,0,0,0,0,0,0,0,0,0,0,0,0,0,0,0,0,0,0,0,0,0,0,0,0,0,0,0,0,0,0,0,0,0,0,0,0,0,0,0,0,0,0,0.4522,0.4523,0,0.4655,0.4656,0.4658,0.4716,0.4716,0.4715,0.4715,0.4854,0.4858,0.4862,0,0,0,0,0,0,0,0,0,0,0,0,0,0.4321,0.4324,0.4522,0.4523,0.4525,0.4654,0.4656,0.4658,0.4716,0.4716,0.4715,0.4715,0.4853,0.4858,0.4862,0,0,0,0,0,0,0,0,0,0,0,0,0,0.4426,0.4325,0.4521,0.4569,0.4575,0.4654,0.4656,0.4659,0.4716,0.4716,0.4715,0.4715,0.4852,0.4857,0.4863,0.4905,0,0,0.4881,0.4883,0,0,0,0,0,0,0,0,0.442,0.4433,0.4561,0.4566,0.4573,0.4668,0.4636,0.4741,0.4716,0.4663,0.4715,0.4715,0.4793,0.4804,0.4829,0.4911,0.4917,0.4881,0.4885,0.4887,0.4889,0,0,0,0,0,0,0,0.4413,0.4428,0.4574,0.4563,0.457,0.4585,0.46,0.4656,0.4728,0.4667,0.4672,0.4687,0.4796,0.4823,0.4833,0.4919,0.4881,0.4886,0.489,0.4892,0.5043,0.5043,0,0,0,0,0,0,0.4397,0.4422,0.457,0.4578,0.4494,0.4589,0.4605,0.4638,0.4727,0.4741,0.4687,0.4689,0.4814,0.4826,0.4838,0.4893,0.4887,0.4893,0.4896,0.5042,0.5043,0.5043,0,0,0,0,0,0,0.4393,0.441,0.4565,0.4501,0.4522,0.4593,0.4629,0.4641,0.4668,0.4742,0.4755,0.4701,0.4814,0.483,0.4888,0.4899,0.4895,0.4901,0.5042,0.5042,0.5043,0.5003,0,0,0,0,0,0,0.4387,0.4408,0.4424,0.4501,0.4525,0.4611,0.463,0.4644,0.4678,0.4682,0.4759,0.4772,0.4815,0.4879,0.4893,0.4907,0.4905,0.5041,0.5042,0.5043,0.5004,0.5002,0.5001,0,0,0,0,0,0.4379,0.4408,0.4425,0.4442,0.4547,0.4612,0.4626,0.4674,0.4678,0.4695,0.4743,0.4769,0.4895,0.4884,0.4901,0.4916,0.5041,0.5042,0.5043,0.5004,0.5003,0.5001,0,0,0,0,0,0,0.4332,0.4419,0.4438,0.4493,0.4544,0.4622,0.4645,0.4671,0.4723,0.4724,0.4782,0.48,0.4852,0.489,0.4877,0.4962,0.497,0.4975,0.4935,0.4934,0.4933,0.4923,0.491,0,0,0,0,0,0.4327,0.4372,0.4446,0.4487,0.4512,0.4574,0.4604,0.4636,0.4692,0.4715,0.4766,0.4821,0.4872,0.4905,0.4957,0.5009,0.5027,0.5028,0.5027,0.5025,0.5029,0.5059,0.5061,0.5047,0.5047,0.5047,0,0,0.4319,0.4372,0.4397,0.4479,0.4523,0.4569,0.4592,0.4639,0.4674,0.4722,0.478,0.4819,0.4884,0.4939,0.4966,0.4972,0.5036,0.5027,0.5025,0.503,0.5061,0.5062,0.5063,0.5048,0.5048,0.5048,0,0,0.4328,0.4372,0.4411,0.4454,0.452,0.456,0.457,0.4643,0.4671,0.4729,0.4766,0.4809,0.4896,0.494,0.4974,0.4998,0.5025,0.5014,0.5007,0.5036,0.5038,0.5039,0.5048,0.505,0.5017,0.5017,0.5017,0,0.431,0.4379,0.4428,0.4474,0.4509,0.4553,0.4593,0.4633,0.4712,0.4736,0.4741,0.4852,0.4898,0.4964,0.497,0.4996,0.5009,0.5006,0.5033,0.5035,0.5037,0.5046,0.5049,0.5015,0.5015,0.5015,0.5016,0,0.4354,0.4401,0.4425,0.4499,0.4537,0.4579,0.4636,0.4668,0.4697,0.4737,0.4796,0.4853,0.4916,0.4934,0.4964,0.5005,0.5006,0.5022,0.5032,0.5036,0.5045,0.5049,0.5012,0.5013,0.5014,0.5014,0,0,0.4337,0.4437,0.4445,0.4479,0.4554,0.4592,0.4637,0.4698,0.4725,0.4777,0.4817,0.4889,0.4903,0.4942,0.4976,0.5002,0.5017,0.5014,0.5017,0.5013,0.5066,0.5054,0.5057,0.5035,0.5036,0.5036,0.5061,0,0.4356,0.4437,0.4482,0.4544,0.4589,0.4632,0.4671,0.4721,0.4759,0.4804,0.4847,0.4897,0.4912,0.4936,0.4962,0.5009,0.5029,0.5008,0.5073,0.5074,0.5055,0.5062,0.505,0.5071,0.5065,0.5065,0.5066,0,0.4389,0.444,0.4506,0.4576,0.4596,0.463,0.469,0.4731,0.4789,0.4816,0.4858,0.4892,0.4941,0.4946,0.5015,0.5,0.5029,0.5056,0.5058,0.5066,0.5071,0.5071,0.5078,0.5081,0.5072,0.5072,0.5071,0,0.437,0.4455,0.4506,0.4534,0.4616,0.4639,0.4675,0.4732,0.4766,0.4819,0.4841,0.4899,0.493,0.4974,0.5023,0.5022,0.5087,0.5096,0.5111,0.511,0.5123,0.5122,0.5135,0.5141,0.5141,0.5141,0.5141,0,0.4387,0.4426,0.4499,0.453,0.4575,0.4627,0.467,0.4709,0.476,0.48,0.484,0.4877,0.4939,0.4984,0.5022,0.5073,0.5088,0.5111,0.512,0.5107,0.5104,0.5127,0.5127,0.5142,0.5141,0.5141,0.5141,0,0.4373,0.4424,0.4482,0.4555,0.4574,0.4604,0.4667,0.4699,0.4739,0.4789,0.4804,0.4867,0.4922,0.4974,0.5048,0.5074,0.5125,0.5138,0.5105,0.511,0.5122,0.512,0.5151,0.5158,0.5158,0.5158,0.5158,0,0.4381,0.4412,0.4487,0.4517,0.4551,0.4598,0.4632,0.4684,0.4718,0.4787,0.4811,0.4868,0.4916,0.5002,0.5055,0.5111,0.5126,0.5133,0.5135,0.512,0.5127,0.5124,0.5128,0.5132,0.5131,0.5131,0.5131,0,0.4389,0.4412,0.446,0.4516,0.4555,0.4602,0.4651,0.4673,0.4734,0.4771,0.4826,0.4864,0.4938,0.4995,0.5057,0.5094,0.5123,0.513,0.5136,0.5123,0.5103,0.5114,0.5101,0.5129,0.5129,0.5129,0.513,0.513,0.4387,0.4416,0.4474,0.4525,0.4567,0.4611,0.4645,0.4689,0.4736,0.48,0.4828,0.4884,0.4941,0.5028,0.5064,0.511,0.5117,0.5126,0.5128,0.513,0.5127,0.5095,0.5121,0.5121,0.5121,0.5121,0.5122,0,0.4397,0.4436,0.4483,0.4549,0.4589,0.4612,0.4666,0.4699,0.4747,0.4798,0.4845,0.4909,0.4963,0.502,0.5078,0.5104,0.5118,0.5117,0.5116,0.5124,0.5117,0.5106,0.5104,0.5104,0.5104,0.5104,0.5104,0.5104,0.4407,0.4458,0.4488,0.4559,0.4599,0.4653,0.4682,0.4724,0.4764,0.4833,0.4879,0.4915,0.4968,0.503,0.5082,0.5097,0.5117,0.5112,0.5131,0.5124,0.5125,0.5126,0.5116,0.5116,0.5116,0.5135,0.5135,0.5135]},{"header":{"parameterUnit":"m.s-1","parameterCategory":1,"la1":30.2991,"la2":30.254,"lo1":-89.0895,"lo2":-89.0444,"dy":0.0017,"dx":0.0017,"nx":28,"ny":28,"refTime":"2023-07-20T03:00:00:Z","depth":0,"parameterNumber":3,"parameterNumberName":"V-component_of_WINDS"},"data":[0,0,0,0,0,0,0,0,0,0,0,0,0,0,0,0,0,0,0,0,0,0,0,0,0,0,0,0,0,0,0,0,0,0,0,0,0,0,0,0,0,0,0,0,0,0,0,0,0,0,0,0,0,0,0,0,0,0,4.1617,4.1616,0,4.157,4.157,4.1569,4.1527,4.1526,4.1526,4.1525,4.1475,4.1474,4.1473,0,0,0,0,0,0,0,0,0,0,0,0,0,4.1666,4.1665,4.1617,4.1616,4.1616,4.1571,4.157,4.1569,4.1527,4.1526,4.1526,4.1525,4.1475,4.1474,4.1473,0,0,0,0,0,0,0,0,0,0,0,0,0,4.1635,4.1665,4.1617,4.1589,4.1586,4.1571,4.157,4.1569,4.1527,4.1526,4.1526,4.1525,4.1475,4.1474,4.1473,4.148,0,0,4.1469,4.1468,0,0,0,0,0,0,0,0,4.1636,4.1633,4.1594,4.1591,4.1588,4.1554,4.1569,4.1539,4.1527,4.155,4.1525,4.1525,4.1502,4.1498,4.1491,4.1478,4.1475,4.1469,4.1468,4.1467,4.1467,0,0,0,0,0,0,0,4.1639,4.1634,4.1598,4.1593,4.159,4.1578,4.1573,4.1563,4.153,4.1548,4.1544,4.154,4.15,4.1492,4.1489,4.1475,4.1469,4.1468,4.1467,4.1466,4.1463,4.1464,0,0,0,0,0,0,4.1645,4.1637,4.16,4.1597,4.1611,4.1578,4.1572,4.1565,4.153,4.1524,4.154,4.1538,4.1495,4.1491,4.1487,4.1492,4.1467,4.1466,4.1465,4.1462,4.1463,4.1464,0,0,0,0,0,0,4.1647,4.1643,4.1602,4.1616,4.161,4.1578,4.1571,4.1565,4.1557,4.1525,4.1518,4.1539,4.1494,4.1489,4.1482,4.149,4.1466,4.1464,4.1461,4.1463,4.1464,4.1502,0,0,0,0,0,0,4.1648,4.1643,4.1646,4.1616,4.1609,4.1598,4.1571,4.1565,4.1556,4.1552,4.1522,4.1516,4.1493,4.1484,4.1481,4.1488,4.1463,4.1461,4.1462,4.1463,4.15,4.1505,4.1508,0,0,0,0,0,4.165,4.1659,4.1647,4.1643,4.1613,4.1599,4.1595,4.1569,4.1557,4.1559,4.1538,4.1517,4.149,4.1484,4.1479,4.1486,4.146,4.1462,4.1463,4.1498,4.1504,4.1508,0,0,0,0,0,0,4.169,4.1654,4.1641,4.164,4.1623,4.1592,4.1594,4.1576,4.1561,4.1558,4.1526,4.1519,4.1515,4.15,4.1494,4.149,4.1472,4.1473,4.15,4.1505,4.1509,4.1512,4.1462,0,0,0,0,0,4.1699,4.1691,4.166,4.1663,4.1655,4.1626,4.1619,4.1601,4.1581,4.1573,4.1552,4.1533,4.152,4.1512,4.1498,4.1498,4.149,4.15,4.1505,4.1508,4.1509,4.1506,4.151,4.1469,4.1469,4.1469,0,0,4.1716,4.1696,4.1693,4.167,4.1655,4.1647,4.162,4.1613,4.1606,4.1572,4.1564,4.1547,4.1524,4.152,4.1517,4.1507,4.1518,4.151,4.1513,4.1512,4.1508,4.1512,4.1516,4.147,4.147,4.147,0,0,4.1744,4.1729,4.1729,4.1714,4.1691,4.1672,4.1672,4.1644,4.1631,4.1623,4.1597,4.1588,4.1566,4.155,4.1539,4.1561,4.1541,4.1558,4.1578,4.1576,4.1579,4.1582,4.1589,4.1591,4.1559,4.1559,4.1559,0,4.1769,4.1757,4.1731,4.1725,4.1715,4.1685,4.1684,4.167,4.1644,4.1637,4.1626,4.1598,4.158,4.1572,4.1577,4.157,4.1567,4.156,4.1581,4.1584,4.1586,4.1591,4.1594,4.1561,4.156,4.156,4.156,0,4.1787,4.1779,4.1782,4.1758,4.1748,4.1745,4.1717,4.171,4.1693,4.1675,4.1665,4.1643,4.1624,4.162,4.1603,4.1609,4.1603,4.1588,4.1568,4.1592,4.1597,4.1599,4.1564,4.1563,4.1562,4.1562,0,0,4.1838,4.18,4.1801,4.179,4.1762,4.1755,4.175,4.1732,4.1726,4.1709,4.1703,4.1685,4.167,4.1658,4.1638,4.1637,4.1654,4.1621,4.162,4.1627,4.1657,4.1668,4.1671,4.1641,4.1641,4.1641,4.1658,0,4.186,4.185,4.1827,4.1823,4.1815,4.1786,4.1781,4.1763,4.1746,4.1735,4.1715,4.1703,4.1685,4.1677,4.1674,4.1652,4.1659,4.1651,4.1633,4.1633,4.1639,4.1674,4.1686,4.1703,4.166,4.1661,4.1661,0,4.1885,4.187,4.1867,4.1839,4.1835,4.1831,4.1812,4.1803,4.1781,4.1769,4.1755,4.1734,4.1725,4.1708,4.1695,4.169,4.1681,4.1669,4.1669,4.1666,4.1648,4.167,4.1708,4.1711,4.1664,4.1664,4.1663,0,4.1921,4.19,4.1895,4.1886,4.1854,4.1852,4.1839,4.1817,4.1807,4.1791,4.1784,4.1766,4.1756,4.1742,4.1716,4.1706,4.1705,4.1686,4.1693,4.1693,4.1693,4.1693,4.1729,4.1689,4.1689,4.1689,4.1689,0,4.1947,4.1946,4.1911,4.1907,4.1904,4.1877,4.1874,4.1858,4.1838,4.183,4.1804,4.1797,4.1764,4.1752,4.1731,4.1723,4.1718,4.1707,4.1701,4.1708,4.171,4.1702,4.1699,4.169,4.169,4.1689,4.1689,0,4.1986,4.1963,4.1955,4.1926,4.1919,4.1918,4.1892,4.1887,4.1868,4.1858,4.1854,4.1824,4.1809,4.1782,4.1759,4.1745,4.174,4.1731,4.1748,4.1744,4.1752,4.1751,4.1783,4.1785,4.1745,4.1745,4.1746,0,4.2004,4.2003,4.1974,4.1967,4.1955,4.1945,4.1935,4.1908,4.1898,4.1874,4.1871,4.1855,4.184,4.1816,4.1791,4.1773,4.1763,4.1775,4.176,4.1767,4.1762,4.1762,4.1761,4.1779,4.1779,4.178,4.178,0,4.2038,4.2027,4.2015,4.1999,4.1988,4.1974,4.1958,4.1954,4.1922,4.1913,4.1898,4.1887,4.1864,4.1847,4.1825,4.1809,4.1789,4.1785,4.1785,4.1793,4.1802,4.1796,4.1756,4.1784,4.1784,4.1784,4.1783,4.1783,4.2066,4.2063,4.2043,4.203,4.2015,4.2001,4.1995,4.1976,4.1963,4.1943,4.1927,4.1913,4.189,4.1859,4.1845,4.1832,4.1823,4.1824,4.1824,4.1824,4.1827,4.1805,4.1828,4.1828,4.1828,4.1828,4.1828,0,4.2098,4.2084,4.2072,4.2051,4.2041,4.2025,4.2006,4.1998,4.1987,4.1968,4.1954,4.1936,4.1919,4.1893,4.1874,4.1869,4.1859,4.1865,4.1864,4.1861,4.1837,4.1838,4.1873,4.1873,4.1873,4.1873,4.1873,4.1873,4.2113,4.2107,4.2093,4.2079,4.2064,4.2051,4.2042,4.2028,4.2013,4.1995,4.1981,4.1965,4.1943,4.1922,4.1905,4.1898,4.1891,4.19,4.1889,4.1867,4.1863,4.1859,4.186,4.1899,4.1899,4.1914,4.1915,4.1915]}]]